GPS BIIR-11 (PRN 19)

Last updated on Wed Dec 25 2024 00:03:08 GMT+0000 (Coordinated Universal Time)

1 28190U 04009A 24358.93193285 -.00000077 00000+0 00000+0 0 9998 2 28190 55.2915 297.4475 0098921 155.7198 204.8884 2.00572492152117
UTC large
Height (km)
Speed (km/s)
/
Latitude / Longitude
Inclination (degrees)
Orbital Period (minutes)
Azimuth
Elevation
Range (km)
Doppler Factor

Next 0 passes for location: London (51.5072 / 0.1276)

Sorry there are no passes over London.